When you browse on this site, cookies collect data to enhance your experience and personalize the content and advertising you see.
Visit our Privacy Policy to learn more. By continuing to use the site, you agree to this use of cookies and data.
  • In Switzerland
  • List of Countries
  • For 7 days
  • Water Temperature
  • Weather Map
  • Weather Widgets
  • user-avatar
    Login

    Hourly Weather La Rioja

    Today, 12 December, Thursday

    Time Temperature Precipitation Wind Pressure Humidity
    00:00 +33°C° 0 mm 3 mps 709 mmHg 35%
    01:00 +32°C° 0 mm 5 mps 709 mmHg 40%
    02:00 +29°C° 0 mm 6 mps 710 mmHg 45%
    03:00 +28°C° 0 mm 5 mps 711 mmHg 47%
    04:00 +28°C° 0 mm 3 mps 711 mmHg 50%
    05:00 +27°C° 0 mm 2 mps 712 mmHg 52%
    06:00 +28°C° 0 mm 2 mps 713 mmHg 48%
    07:00 +29°C° 0 mm 3 mps 714 mmHg 45%
    08:00 +30°C° 0 mm 4 mps 715 mmHg 41%
    09:00 +30°C° 0 mm 4 mps 715 mmHg 38%
    10:00 +30°C° 0 mm 4 mps 715 mmHg 35%
    11:00 +30°C° 0 mm 5 mps 715 mmHg 33%
    12:00 +32°C° 0 mm 5 mps 714 mmHg 30%
    13:00 +32°C° 0 mm 4 mps 714 mmHg 27%
    14:00 +32°C° 0 mm 4 mps 713 mmHg 24%
    15:00 +32°C° 0 mm 4 mps 712 mmHg 24%
    16:00 +32°C° 0 mm 4 mps 712 mmHg 24%
    17:00 +33°C° 0 mm 3 mps 711 mmHg 25%
    18:00 +32°C° 0 mm 4 mps 712 mmHg 24%
    19:00 +30°C° 0 mm 4 mps 713 mmHg 24%
    20:00 +29°C° 0 mm 4 mps 713 mmHg 23%
    21:00 +28°C° 0 mm 4 mps 714 mmHg 23%
    22:00 +27°C° 0 mm 3 mps 714 mmHg 23%
    23:00 +26°C° 0 mm 3 mps 715 mmHg 23%

    Tomorrow, 13 December, Friday

    Time Temperature Precipitation Wind Pressure Humidity
    00:00 +26°C° 0 mm 3 mps 714 mmHg 24%
    01:00 +25°C° 0 mm 2 mps 714 mmHg 25%
    02:00 +24°C° 0 mm 1 mps 713 mmHg 27%
    03:00 +24°C° 0 mm 1 mps 713 mmHg 27%
    04:00 +24°C° 0 mm 2 mps 712 mmHg 28%
    05:00 +24°C° 0 mm 2 mps 712 mmHg 29%
    06:00 +25°C° 0 mm 2 mps 712 mmHg 28%
    07:00 +26°C° 0 mm 2 mps 713 mmHg 26%
    08:00 +27°C° 0 mm 2 mps 713 mmHg 25%
    09:00 +29°C° 0 mm 2 mps 712 mmHg 25%
    10:00 +30°C° 0 mm 3 mps 712 mmHg 26%
    11:00 +33°C° 0 mm 3 mps 712 mmHg 26%
    12:00 +34°C° 0 mm 4 mps 711 mmHg 26%
    13:00 +35°C° 0 mm 4 mps 710 mmHg 25%
    14:00 +37°C° 0 mm 4 mps 710 mmHg 25%
    15:00 +37°C° 0 mm 5 mps 709 mmHg 26%
    16:00 +37°C° 0 mm 5 mps 709 mmHg 26%
    17:00 +37°C° 0 mm 5 mps 708 mmHg 27%
    18:00 +35°C° 0 mm 5 mps 708 mmHg 33%
    19:00 +33°C° 0 mm 4 mps 709 mmHg 38%
    20:00 +32°C° 0 mm 4 mps 710 mmHg 44%
    21:00 +30°C° 0 mm 3 mps 710 mmHg 47%
    22:00 +29°C° 0 mm 2 mps 711 mmHg 51%
    23:00 +29°C° 0 mm 2 mps 711 mmHg 54%

    Day after tomorrow, 14 December, Saturday

    Time Temperature Precipitation Wind Pressure Humidity
    00:00 +28°C° 0 mm 2 mps 711 mmHg 55%
    01:00 +27°C° 0 mm 2 mps 711 mmHg 56%
    02:00 +27°C° 0 mm 2 mps 710 mmHg 58%
    03:00 +26°C° 0 mm 2 mps 710 mmHg 59%
    04:00 +25°C° 0 mm 2 mps 710 mmHg 60%
    05:00 +25°C° 0 mm 2 mps 710 mmHg 60%
    06:00 +26°C° 0 mm 2 mps 710 mmHg 56%
    07:00 +27°C° 0 mm 3 mps 711 mmHg 52%
    08:00 +28°C° 0 mm 3 mps 711 mmHg 48%
    09:00 +30°C° 0 mm 4 mps 711 mmHg 44%
    10:00 +32°C° 0 mm 4 mps 710 mmHg 41%
    11:00 +34°C° 0 mm 4 mps 710 mmHg 38%
    12:00 +35°C° 0 mm 4 mps 710 mmHg 36%
    13:00 +35°C° 0 mm 4 mps 709 mmHg 35%
    14:00 +36°C° 0 mm 4 mps 708 mmHg 33%
    15:00 +36°C° 0 mm 4 mps 708 mmHg 33%
    16:00 +37°C° 0 mm 3 mps 707 mmHg 32%
    17:00 +37°C° 0 mm 3 mps 707 mmHg 31%
    18:00 +36°C° 0 mm 3 mps 707 mmHg 33%
    19:00 +35°C° 0 mm 2 mps 708 mmHg 34%
    20:00 +34°C° 0 mm 2 mps 708 mmHg 36%
    21:00 +32°C° 0.2 mm 2 mps 709 mmHg 40%
    22:00 +32°C° 0.2 mm 2 mps 709 mmHg 44%
    23:00 +31°C° 0.2 mm 2 mps 710 mmHg 48%

    15 December, Sunday

    Time Temperature Precipitation Wind Pressure Humidity
    00:00 +30°C° 0.2 mm 3 mps 710 mmHg 51%
    01:00 +29°C° 0.2 mm 4 mps 710 mmHg 53%
    02:00 +28°C° 0.2 mm 5 mps 710 mmHg 56%
    03:00 +27°C° 0.5 mm 4 mps 710 mmHg 62%
    04:00 +26°C° 0.5 mm 3 mps 711 mmHg 67%
    05:00 +26°C° 0.5 mm 3 mps 712 mmHg 72%
    06:00 +26°C° 0.1 mm 4 mps 713 mmHg 62%
    07:00 +27°C° 0.1 mm 5 mps 714 mmHg 52%
    08:00 +28°C° 0.1 mm 7 mps 714 mmHg 42%
    09:00 +29°C° 0 mm 7 mps 714 mmHg 38%
    10:00 +32°C° 0 mm 7 mps 715 mmHg 34%
    11:00 +33°C° 0 mm 7 mps 715 mmHg 31%
    12:00 +33°C° 0 mm 6 mps 714 mmHg 29%
    13:00 +34°C° 0 mm 5 mps 713 mmHg 27%
    14:00 +35°C° 0 mm 4 mps 713 mmHg 25%
    15:00 +35°C° 0 mm 4 mps 712 mmHg 24%
    16:00 +35°C° 0 mm 3 mps 712 mmHg 24%
    17:00 +35°C° 0 mm 2 mps 711 mmHg 23%
    18:00 +34°C° 0 mm 2 mps 712 mmHg 26%
    19:00 +33°C° 0 mm 3 mps 712 mmHg 29%
    20:00 +31°C° 0 mm 3 mps 712 mmHg 32%
    21:00 +30°C° 0 mm 2 mps 712 mmHg 37%
    22:00 +30°C° 0 mm 2 mps 712 mmHg 42%
    23:00 +29°C° 0 mm 2 mps 712 mmHg 47%

    16 December, Monday

    Time Temperature Precipitation Wind Pressure Humidity
    00:00 +28°C° 0 mm 2 mps 712 mmHg 49%
    01:00 +28°C° 0 mm 2 mps 711 mmHg 51%
    02:00 +27°C° 0 mm 2 mps 711 mmHg 52%
    03:00 +27°C° 0 mm 2 mps 711 mmHg 52%
    04:00 +27°C° 0 mm 2 mps 711 mmHg 52%
    05:00 +26°C° 0 mm 1 mps 711 mmHg 52%
    06:00 +28°C° 0 mm 2 mps 711 mmHg 48%
    07:00 +29°C° 0 mm 2 mps 712 mmHg 45%
    08:00 +30°C° 0 mm 3 mps 712 mmHg 41%
    09:00 +31°C° 0 mm 3 mps 712 mmHg 37%
    10:00 +34°C° 0 mm 3 mps 712 mmHg 34%
    11:00 +35°C° 0 mm 4 mps 712 mmHg 30%
    12:00 +35°C° 0 mm 4 mps 711 mmHg 28%
    13:00 +36°C° 0 mm 4 mps 710 mmHg 27%
    14:00 +37°C° 0 mm 4 mps 710 mmHg 25%
    15:00 +37°C° 0 mm 5 mps 709 mmHg 25%
    16:00 +38°C° 0 mm 6 mps 709 mmHg 25%
    17:00 +38°C° 0 mm 7 mps 708 mmHg 26%
    18:00 +35°C° 0 mm 6 mps 708 mmHg 29%
    19:00 +33°C° 0 mm 6 mps 709 mmHg 33%
    20:00 +32°C° 0 mm 5 mps 709 mmHg 36%
    21:00 +30°C° 0 mm 4 mps 710 mmHg 39%
    22:00 +29°C° 0 mm 3 mps 710 mmHg 41%
    23:00 +29°C° 0 mm 3 mps 711 mmHg 43%

    17 December, Tuesday

    Time Temperature Precipitation Wind Pressure Humidity
    00:00 +28°C° 0 mm 2 mps 710 mmHg 45%
    01:00 +27°C° 0 mm 2 mps 710 mmHg 47%
    02:00 +27°C° 0 mm 2 mps 710 mmHg 49%
    03:00 +26°C° 0 mm 2 mps 710 mmHg 51%
    04:00 +26°C° 0 mm 1 mps 709 mmHg 53%
    05:00 +25°C° 0 mm 1 mps 709 mmHg 55%
    06:00 +26°C° 0 mm 2 mps 709 mmHg 51%
    07:00 +27°C° 0 mm 2 mps 710 mmHg 48%
    08:00 +28°C° 0 mm 2 mps 710 mmHg 45%
    09:00 +30°C° 0 mm 2 mps 710 mmHg 41%
    10:00 +31°C° 0 mm 2 mps 709 mmHg 37%
    11:00 +34°C° 0 mm 2 mps 709 mmHg 33%
    12:00 +35°C° 0 mm 2 mps 708 mmHg 31%
    13:00 +36°C° 0 mm 2 mps 707 mmHg 29%
    14:00 +37°C° 0 mm 3 mps 707 mmHg 27%
    15:00 +38°C° 0 mm 4 mps 706 mmHg 27%
    16:00 +39°C° 0 mm 5 mps 706 mmHg 26%
    17:00 +40°C° 0 mm 6 mps 705 mmHg 26%
    18:00 +38°C° 0 mm 6 mps 706 mmHg 30%
    19:00 +36°C° 0 mm 5 mps 706 mmHg 35%
    20:00 +34°C° 0 mm 5 mps 707 mmHg 39%
    21:00 +33°C° 0.1 mm 5 mps 707 mmHg 40%
    22:00 +32°C° 0.1 mm 5 mps 708 mmHg 41%
    23:00 +32°C° 0.1 mm 5 mps 709 mmHg 43%
    Show more